Homestead, FL

4:49 PM EST on February 25, 2017 (GMT -0500)
Dade County-Homestead Regional

Weather History for KHST - August, 2014

Change the Weather History Date:

Wednesday, August 13, 2014

  Actual Average Record
Temperature  
Mean Temperature 84 °F -  
Max Temperature 91 °F 89 °F 95 °F (1931)
Min Temperature 77 °F 72 °F 67 °F (1941)
Cooling Degree Days 19    
Growing Degree Days 34 (Base 50)    
Moisture  
Dew Point 75 °F    
Average Humidity 74    
Maximum Humidity 94    
Minimum Humidity 55    
Precipitation  
Precipitation 0.00 in - - ()
Sea Level Pressure  
Sea Level Pressure 30.03 in    
Wind  
Wind Speed 3 mph (South)    
Max Wind Speed 13 mph    
Max Gust Speed -    
Visibility 10 miles    
Events      
Averages and records for this station are not official NWS values.
T = Trace of Precipitation, MM = Missing Value Source: NWS Daily Summary

Daily Weather History Graph

Daily Weather History Graph

Search for Another Location

Airport or City:

Trip Planner

Search our weather history database for the weather conditions in past years. The results will help you decide how hot, cold, wet, or windy it might be!

Date:

Astronomy

Aug. 13, 2014 Rise Set
Actual Time 6:53 AM EDT 7:58 PM EDT
Civil Twilight 6:29 AM EDT 8:22 PM EDT
Nautical Twilight 6:01 AM EDT 8:50 PM EDT
Astronomical Twilight 5:32 AM EDT 9:20 PM EDT
Moon 10:11 PM EDT (8/13) 9:54 AM EDT (8/13)
Length of Visible Light 13h 52m
Length of Day
13h 04m
Waning Gibbous, 88% of the Moon is Illuminated
Aug 13
Waning Gibbous
Aug 17
Last Quarter
Aug 25
New
Sep 2
First Quarter
Sep 8
Full

Hourly Weather History & Observations

Time (EDT) Temp. Heat Index Dew Point Humidity Pressure Visibility Wind Dir Wind Speed Gust Speed Precip Events Conditions
12:58 AM 78.8 °F - 74.5 °F 87% 30.04 in 10.0 mi NNE 1.2 mph - N/A   Clear
1:58 AM 78.6 °F - 75.6 °F 90% 30.03 in 10.0 mi Calm Calm - N/A   Clear
2:58 AM 79.0 °F - 75.2 °F 88% 30.02 in 10.0 mi Calm Calm - N/A   Clear
3:58 AM 77.2 °F - 75.4 °F 94% 30.01 in 10.0 mi SSE 2.3 mph - N/A   Clear
4:58 AM 78.3 °F - 75.4 °F 91% 30.01 in 10.0 mi SSE 2.3 mph - N/A   Clear
5:58 AM 77.7 °F - 75.0 °F 91% 30.02 in 10.0 mi Calm Calm - N/A   Clear
6:58 AM 77.7 °F - 75.9 °F 94% 30.03 in 10.0 mi Calm Calm - N/A   Clear
7:58 AM 81.0 °F 86.9 °F 75.4 °F 83% 30.03 in 10.0 mi SSW 2.3 mph - N/A   Clear
8:58 AM 84.6 °F 93.5 °F 75.7 °F 75% 30.05 in 10.0 mi South 3.5 mph - N/A   Clear
9:58 AM 86.7 °F 95.5 °F 74.7 °F 67% 30.06 in 10.0 mi South 4.6 mph - N/A   Clear
10:58 AM 87.6 °F 96.7 °F 74.5 °F 65% 30.06 in 10.0 mi South 5.8 mph - N/A   Clear
11:58 AM 89.4 °F 98.3 °F 73.9 °F 60% 30.05 in 10.0 mi SSE 6.9 mph - N/A   Partly Cloudy
12:58 PM 89.8 °F 98.6 °F 73.8 °F 59% 30.05 in 10.0 mi South 6.9 mph - N/A   Clear
1:58 PM 90.3 °F 98.7 °F 73.0 °F 57% 30.04 in 10.0 mi South 8.1 mph - N/A   Partly Cloudy
2:58 PM 91.6 °F 102.9 °F 75.4 °F 59% 30.03 in 10.0 mi South 10.4 mph - N/A   Clear
3:58 PM 91.4 °F 100.1 °F 73.4 °F 55% 30.00 in 10.0 mi SSE 12.7 mph - N/A   Clear
4:58 PM 91.0 °F 100.4 °F 73.8 °F 57% 30.00 in 10.0 mi South 12.7 mph - N/A   Scattered Clouds
5:58 PM 90.7 °F 99.0 °F 73.2 °F 56% 30.00 in 10.0 mi SSW 10.4 mph - N/A   Clear
6:58 PM 88.9 °F 97.6 °F 73.8 °F 61% 30.00 in 10.0 mi South 9.2 mph - N/A   Clear
9:58 PM 82.8 °F 90.4 °F 75.6 °F 79% 30.05 in 10.0 mi SSE 4.6 mph - N/A   Scattered Clouds
10:58 PM 81.1 °F 87.8 °F 76.1 °F 85% 30.07 in 10.0 mi South 3.5 mph - N/A   Clear